Temperature
8 9 9 10 10 10 10 10 11 11 11 11 12 12 13 13 13 13 13 13 13 13 13 13 13 13 14 14 14 14 14 14 14 14 14 14 14 14 14 15 15 14 15 15
9 9 9 9 10 10 10 10 10 10 11 11 12 12 13 13 13 12 13 13 12 12 13 13 13 13 13 13 13 13 14 14 13 13 14 14 14 14 14 14 14 14 14 14
9 9 9 9 10 10 10 10 11 10 10 11 12 13 13 13 12 12 12 12 12 12 12 13 13 13 13 13 13 13 13 14 13 13 13 13 13 13 14 14 14 14 14 14
9 9 9 10 10 10 10 10 10 10 11 11 12 12 13 13 13 13 13 12 12 12 12 12 12 13 13 13 13 13 13 13 13 13 13 13 13 13 13 13 14 14 14 14
9 9 9 9 9 10 10 10 10 10 11 11 12 12 13 12 12 12 12 12 11 11 11 12 12 12 12 13 13 13 13 13 13 13 13 13 13 13 13 13 13 13 13 13
9 9 9 9 9 9 9 10 10 10 11 11 11 12 12 12 11 11 12 11 10 10 11 11 11 12 12 12 13 13 13 13 13 13 13 13 12 12 12 12 13 13 13 13
9 9 9 9 10 10 10 10 10 11 11 12 10 11 12 11 11 11 11 10 10 10 10 10 11 11 12 12 12 12 12 13 13 13 13 12 12 12 12 12 12 12 12 12
9 9 9 9 9 10 10 10 11 11 12 12 11 11 12 11 10 10 10 9 9 9 9 10 10 11 11 11 12 12 12 12 12 12 12 12 12 12 12 12 12 12 12 12
10 9 8 8 9 10 10 10 10 10 10 11 12 11 11 11 10 10 10 9 9 9 9 9 10 10 10 11 11 11 11 12 12 12 12 12 12 12 12 12 12 12 12 12
10 8 8 8 9 9 9 9 10 9 10 11 11 11 12 10 10 10 10 9 9 8 8 9 9 9 10 10 10 11 11 11 11 11 11 11 11 11 11 11 11 11 11 11
9 9 8 9 9 9 9 9 9 10 10 11 11 12 11 10 10 10 9 8 8 8 8 8 8 9 9 9 10 10 10 10 11 11 11 11 11 11 11 11 11 11 11 11
8 9 8 8 8 8 9 9 9 9 9 9 10 11 10 10 9 9 8 8 7 7 7 8 8 8 8 9 9 9 9 9 10 10 10 10 10 10 10 10 10 10 10 10
8 9 8 8 8 8 8 8 8 9 8 9 10 11 9 9 9 8 8 7 7 7 7 7 7 7 7 8 8 8 9 9 9 9 9 10 10 10 10 10 10 10 10 9
8 8 9 10 9 8 8 8 8 8 8 9 10 11 10 9 9 8 7 7 7 6 6 6 6 6 7 7 7 7 8 8 8 8 9 9 9 9 9 9 9 9 9 9
8 8 8 8 7 7 8 8 7 7 8 8 9 9 10 9 8 8 7 6 6 6 6 5 5 6 6 6 7 7 7 7 7 8 8 8 8 8 8 8 8 8 8 8
8 8 7 7 6 7 7 7 8 8 8 8 9 9 9 8 7 7 6 6 6 5 5 5 5 5 5 5 6 6 6 7 7 7 7 7 7 7 7 7 7 7 7 7
7 7 7 8 6 6 7 8 8 7 8 8 8 9 8 7 7 6 6 5 5 4 4 4 4 4 4 4 5 5 6 6 6 6 7 7 7 7 7 7 7 7 6 6
7 7 7 7 6 6 9 7 7 7 7 7 7 8 7 7 6 5 5 5 4 4 4 4 4 4 4 4 4 5 5 5 5 6 6 6 6 6 6 6 6 6 6 6
7 7 7 7 7 8 8 6 6 7 7 7 7 7 6 5 5 5 4 4 4 3 3 3 3 3 4 4 4 4 4 5 5 5 5 5 5 5 5 5 5 5 5 5
5 6 7 6 7 8 9 7 5 7 7 7 6 6 5 5 6 7 4 3 3 3 3 3 3 3 3 3 3 4 4 4 4 4 4 4 4 4 4 4 4 4 4 4
5 5 6 6 6 8 8 5 5 7 9 6 5 5 5 5 5 4 3 3 3 3 2 2 2 3 3 3 3 3 3 3 3 3 4 4 4 4 4 4 4 4 3 4
6 6 6 6 6 7 6 5 6 8 5 4 4 4 4 3 3 3 3 2 2 2 2 2 2 2 2 3 3 3 3 3 3 3 3 3 3 3 3 3 3 3 3 3
6 7 7 7 8 6 5 6 5 5 4 4 4 3 3 3 3 2 2 2 2 2 2 2 2 2 2 2 2 2 2 2 2 2 3 3 3 3 3 3 3 2 2 2
5 4 5 5 6 5 4 4 4 4 4 4 4 3 3 2 2 2 2 2 2 1 1 1 1 1 2 2 2 2 2 2 2 2 2 2 2 2 2 2 2 2 2 2
6 4 4 5 5 4 3 4 4 4 4 3 3 3 2 2 2 2 1 1 1 1 1 1 1 1 1 1 1 1 1 1 2 2 2 2 2 1 1 1 1 1 1 1
4 4 5 7 6 6 5 5 4 4 3 3 3 2 2 2 1 1 1 1 1 1 1 1 1 1 1 1 1 1 1 1 1 1 1 1 1 1 1 1 1 1 1 1
Wind_Speed
2 3 4 4 5 3 4 5 4 2 1 2 4 5 5 4 5 5 4 3 3 4 3 3 4 4 4 5 5 6 7 7 6 6 7 7 7 7 7 7 10 12 12 12
3 2 2 2 3 4 4 4 2 0 1 2 3 4 4 3 4 3 3 3 3 2 3 3 4 5 5 5 6 6 7 7 8 7 7 6 6 6 7 7 9 12 12 12
2 1 1 3 4 4 2 2 2 1 1 1 2 3 2 0 1 2 2 1 1 2 3 3 4 4 4 4 5 5 6 7 8 8 6 5 5 4 6 8 8 9 11 12
1 0 3 3 1 2 1 1 2 2 1 0 2 2 0 1 1 1 1 1 1 0 1 2 2 2 2 3 3 4 5 6 7 8 8 9 8 8 8 8 7 8 10 10
1 1 2 1 1 1 1 1 1 1 1 0 1 2 0 2 2 3 4 4 3 2 1 2 2 1 1 1 2 3 4 5 7 7 9 10 9 8 6 6 8 8 7 8
1 0 1 1 1 1 3 3 2 1 1 1 1 1 1 2 2 3 5 6 5 4 3 2 2 1 0 1 1 2 3 4 6 7 8 10 11 10 9 9 8 7 6 6
2 1 1 0 2 2 1 1 1 1 1 0 1 1 1 4 4 4 5 6 6 6 5 4 4 3 2 2 2 1 2 4 5 6 8 9 10 11 11 11 10 9 7 7
3 3 1 1 0 1 1 1 1 0 1 1 0 1 2 4 4 5 6 6 7 7 7 6 6 4 3 3 2 2 3 4 5 5 6 7 9 8 8 10 9 10 9 8
3 2 2 2 2 0 2 1 2 1 1 1 1 0 1 4 5 7 8 9 9 8 8 7 6 6 5 4 3 3 3 3 4 5 5 6 7 7 7 7 8 8 7 7
2 3 1 1 1 3 2 2 1 1 1 1 1 1 1 2 4 6 8 9 9 8 8 7 7 7 6 5 5 4 3 3 3 4 4 4 5 5 5 6 7 7 8 8
1 3 2 2 1 1 2 2 1 1 1 1 1 0 2 2 2 4 5 7 8 8 8 7 7 7 7 6 5 5 4 4 3 3 3 3 3 3 4 5 6 7 7 8
2 2 2 1 1 2 2 2 2 2 1 1 1 1 3 2 2 3 4 6 7 8 7 7 7 7 7 7 6 6 5 4 4 3 3 3 3 3 4 5 6 6 7 7
4 3 3 3 3 2 2 2 3 1 2 3 3 2 3 2 3 3 4 6 7 8 8 7 8 8 8 8 7 7 6 6 5 4 4 3 3 3 4 4 5 5 6 6
3 2 3 2 1 3 4 4 5 4 3 4 6 5 3 3 4 5 5 6 7 7 8 8 8 8 8 8 8 7 7 6 5 4 4 4 4 3 3 3 4 4 5 6
2 2 1 1 1 2 4 6 7 8 8 6 6 7 7 4 4 4 4 5 7 8 8 8 9 9 9 9 9 8 8 7 6 5 4 4 4 3 3 3 4 4 5 5
2 2 2 1 1 2 5 8 9 9 9 10 10 9 4 3 3 3 4 5 7 8 8 9 9 10 10 10 10 9 9 8 7 5 5 4 3 3 3 3 4 4 5 5
4 4 3 2 1 3 7 9 11 8 8 8 9 6 2 3 3 4 5 6 6 7 8 9 9 9 9 10 10 10 9 8 7 6 5 4 3 3 3 3 4 5 5 5
5 4 2 1 1 5 1 1 5 8 9 9 7 5 4 5 4 4 4 4 5 7 9 9 9 10 10 9 9 9 8 8 7 6 6 4 4 3 3 3 4 5 5 5
3 5 3 2 3 6 3 4 5 6 5 7 8 6 4 3 3 3 1 4 6 8 8 9 9 9 9 9 9 9 8 7 7 6 6 5 4 4 3 4 4 4 5 5
2 3 4 3 4 5 2 5 4 3 4 5 6 5 3 2 4 3 3 6 7 8 8 8 8 8 8 8 8 8 8 7 7 7 7 6 4 4 4 4 4 4 4 5
6 5 7 6 6 6 3 6 7 5 1 4 4 4 4 4 4 4 5 6 7 7 8 8 8 7 7 7 7 7 7 7 8 7 6 5 4 4 3 3 3 4 4 4
9 8 8 7 7 7 8 9 7 2 3 4 3 4 4 4 4 4 5 6 6 7 7 7 7 7 7 7 7 7 7 7 7 6 5 4 3 2 2 3 3 4 5 5
9 8 6 8 6 1 8 6 3 3 3 3 3 3 4 4 5 5 5 6 6 6 7 7 7 7 7 7 7 7 7 7 6 6 5 4 3 2 2 3 4 4 5 5
6 4 5 6 8 6 7 6 5 4 4 3 3 3 4 5 5 5 5 5 5 6 6 6 6 7 7 8 7 7 7 6 6 5 5 4 2 2 2 2 3 4 5 5
6 9 6 7 5 4 8 10 9 6 5 4 3 3 4 5 5 5 5 5 5 5 6 5 6 6 8 8 7 7 6 6 5 5 4 4 3 2 2 2 3 4 5 5
8 9 9 8 8 7 7 9 9 9 7 6 5 4 4 4 5 4 4 4 4 5 5 5 6 6 7 7 7 7 6 6 5 4 4 3 2 2 1 1 1 2 4 5
Wind_Direction
187 197 198 206 221 215 186 198 200 245 308 216 218 233 249 249 233 233 236 235 231 235 235 209 193 188 188 187 188 192 193 198 202 200 202 202 203 203 204 207 211 208 206 205
167 203 242 198 178 173 172 178 176 134 2 270 229 264 268 262 247 252 249 237 226 226 207 204 192 179 190 192 194 202 200 199 204 209 208 212 208 209 210 210 213 210 207 205
163 6 159 160 155 146 152 188 164 161 327 348 253 254 235 219 218 225 231 233 230 216 206 185 178 177 187 197 195 210 210 212 215 215 209 207 206 209 211 214 215 214 210 207
63 75 156 157 164 171 158 194 163 175 198 49 283 229 321 30 106 124 69 52 1 174 179 158 132 130 167 211 200 210 215 218 218 213 213 211 214 216 219 216 215 211 207 209
117 130 143 135 332 225 126 122 144 177 163 192 291 227 97 57 83 35 30 30 34 51 100 115 113 127 150 211 210 216 226 223 221 215 218 218 224 224 220 218 219 214 206 208
106 49 355 52 39 115 140 126 117 171 194 195 339 238 85 50 17 8 22 24 32 38 50 70 79 83 9 352 284 246 241 240 231 224 229 224 222 221 217 219 222 221 215 212
115 100 51 30 123 111 170 181 165 162 168 124 35 254 18 28 26 22 22 27 33 36 38 35 38 28 359 348 341 273 241 243 236 228 228 232 229 224 220 219 218 217 217 214
162 148 60 13 343 160 177 282 297 215 151 111 112 248 57 41 44 50 51 47 38 34 30 25 21 17 3 347 329 293 254 243 238 234 235 235 236 232 228 224 222 219 217 211
175 139 61 26 13 188 157 116 12 68 78 237 209 211 88 63 50 42 40 37 30 25 22 18 14 13 6 347 331 310 276 262 254 245 240 236 235 231 227 226 226 223 215 206
151 139 82 6 136 51 31 120 166 170 201 224 244 232 192 72 37 27 26 24 18 15 17 15 10 5 1 353 343 340 326 293 269 259 257 252 246 237 222 219 218 217 208 199
148 144 128 145 174 166 129 143 141 140 305 259 253 118 62 101 44 22 15 10 6 8 7 7 4 2 359 356 356 356 349 335 315 290 275 263 250 239 226 221 219 213 203 194
150 144 140 141 20 318 249 202 191 206 194 234 269 267 89 71 34 20 7 0 0 2 2 3 4 3 1 358 358 355 349 340 329 315 294 277 255 232 227 223 215 204 197 189
159 160 144 158 180 189 207 200 202 168 154 201 222 211 114 37 11 5 1 358 359 1 1 0 1 2 360 355 352 348 345 339 331 323 309 291 264 235 223 222 212 197 187 179
156 176 227 221 131 173 204 208 202 191 202 218 233 246 254 314 333 345 352 354 356 359 359 358 356 355 352 349 349 346 342 337 329 320 308 291 276 254 235 216 203 191 179 171
182 190 200 286 307 224 233 224 213 216 223 230 244 253 269 291 301 312 332 346 349 350 355 355 350 347 345 345 346 344 339 336 327 316 304 294 292 274 237 207 191 181 174 167
165 166 168 236 282 268 260 242 230 230 235 240 255 269 280 281 289 303 318 330 335 341 345 345 344 342 341 340 341 338 337 333 322 308 298 292 285 270 232 202 183 174 173 167
161 161 183 224 312 286 257 233 217 216 218 223 240 255 272 278 285 300 308 317 325 332 335 336 337 336 333 332 332 331 328 326 319 310 303 293 276 258 233 202 185 179 175 169
164 164 182 211 229 238 221 98 211 221 232 228 240 255 267 280 287 291 295 310 323 328 328 328 329 329 327 325 326 325 323 322 320 314 309 301 285 264 232 205 195 190 181 177
190 177 178 205 246 268 245 199 188 204 237 221 228 245 273 306 290 276 299 330 322 320 320 319 320 319 319 321 325 324 323 323 320 316 312 302 286 264 237 217 204 198 188 181
134 180 193 195 234 246 187 150 162 183 240 189 207 227 234 253 268 289 320 322 321 319 319 320 320 318 317 320 324 321 320 321 321 318 311 303 287 265 248 230 212 202 192 187
171 186 206 214 239 263 178 147 158 201 213 149 193 207 207 232 272 306 305 310 314 316 319 321 319 319 319 322 322 317 317 318 317 313 307 299 286 267 249 228 207 194 188 182
186 184 196 198 219 242 154 158 195 214 105 158 189 209 225 250 281 292 297 304 309 316 322 325 324 324 325 326 323 316 316 319 318 315 310 305 293 271 233 206 192 187 184 182
208 204 199 206 216 91 169 190 182 146 172 184 197 221 228 246 268 285 293 298 306 315 322 327 325 323 328 332 327 317 319 320 317 316 316 313 302 278 232 206 189 185 188 189
210 202 213 237 241 222 210 207 195 191 197 196 206 216 224 247 263 276 288 296 305 314 319 324 324 326 329 332 331 324 323 322 319 318 320 321 311 290 245 216 199 197 196 196
192 178 204 237 240 222 224 214 207 201 200 201 212 225 231 245 261 272 282 292 302 310 314 321 324 324 325 328 328 330 330 326 322 323 324 320 312 294 271 243 225 216 218 216
191 188 193 216 200 193 199 191 192 195 203 207 211 224 237 243 257 267 277 288 297 305 313 317 320 320 323 326 326 331 333 327 323 324 325 323 320 315 298 270 266 249 239 233
Height
1484 1483 1479 1478 1477 1476 1475 1475 1474 1475 1476 1476 1473 1472 1471 1472 1473 1473 1474 1475 1477 1478 1480 1482 1484 1486 1489 1491 1494 1496 1499 1502 1505 1507 1510 1513 1515 1517 1520 1522 1524 1526 1528 1530
1481 1480 1480 1479 1479 1478 1476 1475 1475 1476 1476 1475 1472 1470 1469 1470 1471 1472 1473 1474 1476 1477 1479 1480 1482 1484 1486 1489 1491 1494 1496 1499 1501 1504 1507 1509 1511 1514 1516 1518 1520 1522 1524 1526
1479 1480 1480 1480 1478 1478 1477 1476 1475 1476 1476 1474 1473 1469 1467 1469 1471 1472 1473 1474 1475 1475 1477 1478 1480 1482 1484 1486 1488 1491 1493 1495 1497 1500 1502 1505 1507 1509 1511 1513 1515 1517 1519 1520
1480 1481 1481 1479 1479 1477 1478 1477 1477 1477 1475 1475 1474 1470 1465 1468 1469 1470 1471 1473 1474 1475 1476 1477 1479 1480 1481 1484 1486 1487 1489 1492 1494 1496 1497 1500 1501 1503 1506 1509 1510 1511 1513 1515
1481 1482 1481 1480 1480 1479 1479 1479 1478 1478 1476 1475 1472 1469 1467 1469 1469 1470 1471 1473 1473 1474 1475 1476 1477 1479 1480 1482 1483 1484 1486 1488 1490 1491 1493 1494 1496 1498 1501 1503 1504 1505 1507 1509
1483 1484 1483 1482 1482 1482 1481 1480 1479 1478 1475 1475 1474 1471 1469 1471 1472 1473 1473 1473 1473 1473 1474 1475 1476 1477 1479 1480 1480 1481 1483 1485 1486 1487 1489 1489 1491 1493 1495 1497 1498 1500 1501 1502
1482 1483 1484 1484 1481 1482 1480 1479 1477 1476 1474 1472 1477 1474 1472 1474 1476 1476 1475 1474 1474 1474 1474 1474 1475 1475 1476 1476 1477 1479 1480 1481 1482 1483 1485 1485 1486 1487 1489 1490 1492 1494 1495 1496
1480 1482 1484 1484 1482 1480 1480 1479 1478 1475 1472 1471 1476 1473 1474 1477 1478 1477 1476 1475 1475 1474 1473 1473 1473 1474 1474 1475 1475 1476 1477 1477 1478 1479 1480 1481 1482 1483 1484 1485 1486 1488 1489 1490
1477 1481 1485 1486 1485 1482 1480 1480 1482 1480 1481 1477 1471 1473 1474 1477 1477 1477 1476 1476 1475 1475 1474 1474 1473 1473 1473 1473 1473 1473 1473 1474 1474 1475 1476 1476 1477 1478 1479 1480 1481 1482 1483 1484
1478 1483 1485 1486 1485 1486 1484 1483 1482 1483 1480 1474 1471 1471 1471 1476 1477 1477 1477 1477 1477 1476 1474 1474 1473 1472 1471 1471 1470 1470 1470 1470 1471 1471 1472 1472 1472 1473 1474 1475 1476 1476 1477 1479
1481 1482 1486 1485 1485 1484 1485 1485 1483 1482 1480 1476 1473 1472 1475 1477 1479 1479 1479 1479 1478 1476 1475 1473 1472 1471 1470 1469 1468 1467 1467 1467 1467 1467 1467 1468 1468 1468 1469 1470 1470 1471 1472 1473
1482 1481 1484 1486 1489 1489 1486 1484 1483 1483 1486 1482 1477 1477 1478 1479 1481 1481 1481 1480 1478 1477 1475 1473 1472 1471 1469 1467 1466 1465 1465 1464 1464 1464 1464 1463 1463 1464 1464 1465 1466 1466 1467 1468
1481 1482 1483 1483 1489 1489 1486 1486 1485 1485 1486 1484 1481 1477 1479 1480 1481 1481 1481 1480 1478 1476 1474 1473 1471 1470 1468 1466 1465 1464 1463 1462 1461 1461 1460 1460 1460 1460 1460 1461 1461 1461 1462 1463
1482 1480 1479 1476 1475 1481 1484 1485 1486 1487 1485 1482 1477 1473 1476 1479 1480 1481 1481 1480 1478 1476 1475 1473 1471 1469 1467 1466 1464 1462 1461 1460 1459 1458 1457 1457 1456 1456 1456 1457 1457 1457 1458 1459
1481 1481 1482 1482 1484 1484 1483 1483 1484 1485 1481 1481 1475 1475 1475 1479 1481 1481 1481 1480 1478 1476 1474 1473 1470 1468 1466 1464 1462 1460 1459 1458 1456 1455 1454 1453 1453 1452 1452 1453 1453 1453 1454 1455
1481 1481 1483 1484 1486 1485 1484 1481 1481 1481 1480 1478 1477 1476 1477 1480 1481 1480 1480 1479 1477 1476 1474 1472 1470 1467 1465 1463 1460 1459 1457 1455 1454 1452 1451 1450 1450 1449 1449 1449 1449 1450 1451 1452
1481 1482 1483 1480 1486 1485 1479 1474 1476 1477 1476 1476 1475 1474 1477 1479 1479 1479 1479 1478 1477 1475 1473 1471 1468 1466 1464 1461 1459 1456 1454 1453 1451 1450 1448 1447 1446 1445 1445 1445 1445 1446 1447 1448
1480 1481 1483 1482 1486 1484 1470 1475 1474 1474 1474 1475 1475 1475 1477 1478 1478 1478 1477 1476 1475 1474 1471 1469 1467 1464 1462 1459 1457 1454 1452 1450 1449 1447 1445 1444 1442 1442 1441 1441 1442 1443 1444 1445
1481 1481 1482 1483 1478 1470 1471 1474 1475 1474 1472 1473 1474 1475 1477 1477 1477 1475 1475 1475 1474 1472 1470 1467 1465 1462 1460 1457 1455 1452 1450 1448 1446 1444 1442 1440 1439 1438 1438 1438 1439 1440 1441 1442
1483 1482 1481 1483 1479 1469 1463 1471 1473 1475 1469 1470 1472 1473 1475 1476 1473 1472 1473 1472 1471 1469 1467 1465 1462 1459 1457 1455 1452 1450 1447 1445 1443 1441 1439 1438 1436 1436 1435 1435 1436 1437 1438 1439
1481 1481 1480 1479 1476 1463 1466 1471 1474 1471 1463 1469 1470 1471 1473 1473 1473 1472 1471 1470 1469 1467 1464 1462 1459 1457 1454 1452 1450 1447 1445 1443 1440 1438 1436 1435 1434 1433 1433 1433 1433 1434 1435 1436
1470 1472 1474 1473 1474 1465 1465 1469 1468 1464 1466 1467 1468 1470 1471 1471 1470 1469 1469 1467 1466 1464 1462 1459 1457 1454 1452 1449 1447 1445 1442 1440 1437 1435 1433 1432 1431 1430 1430 1430 1430 1431 1432 1432
1466 1463 1462 1462 1460 1460 1462 1462 1463 1464 1465 1466 1467 1468 1468 1468 1468 1467 1466 1464 1463 1461 1459 1457 1455 1452 1450 1447 1445 1442 1439 1437 1435 1433 1431 1429 1428 1427 1427 1427 1427 1427 1428 1429
1464 1466 1464 1462 1458 1459 1460 1461 1461 1462 1464 1464 1465 1466 1465 1465 1465 1464 1463 1462 1460 1458 1457 1454 1452 1450 1447 1444 1442 1439 1437 1434 1432 1430 1428 1426 1425 1424 1424 1424 1424 1424 1425 1426
1454 1460 1459 1457 1455 1457 1456 1457 1458 1460 1461 1462 1463 1463 1463 1463 1462 1461 1460 1459 1457 1456 1454 1452 1450 1447 1445 1442 1439 1437 1435 1432 1430 1427 1425 1424 1423 1422 1421 1421 1421 1421 1422 1423
1450 1451 1451 1446 1447 1449 1450 1452 1454 1456 1457 1459 1460 1460 1460 1460 1459 1458 1457 1456 1455 1453 1451 1450 1448 1445 1443 1440 1438 1435 1433 1430 1428 1426 1424 1422 1421 1420 1419 1418 1419 1419 1420 1420